Theta_e
298 291 290 289 288 293 297 297 297 297 298 297 297 294 293 292 294 297 300 303 305 301 298 298 297 302 304 306 309 311 310 309 309 309 310 311 311 313 314 316 317 317 318 320 322 321 322 323 323 324 324 324 324 324 323 322 319 318 317 318 317 318 323 323 320 317 316 317 318 318 317 322 321 322 323 322 321 323 325 326 327 327 327 326 327 329
299 291 290 293 293 293 294 294 295 296 297 295 294 293 292 292 290 297 299 303 305 300 296 297 297 297 304 307 309 311 309 307 308 309 310 311 312 313 314 315 316 317 319 320 319 320 321 321 323 323 323 325 321 322 323 321 319 319 318 316 315 320 320 320 318 319 318 317 317 317 316 318 322 322 320 319 320 324 327 326 326 326 325 326 326 330
293 290 293 294 295 296 295 295 296 296 296 295 291 291 291 292 295 297 301 302 303 301 294 296 296 296 299 306 309 310 309 309 310 310 311 312 312 313 314 314 316 316 316 318 319 320 321 322 323 322 323 322 322 322 322 322 320 320 319 317 317 318 317 319 322 317 319 320 322 318 319 318 319 319 321 319 326 328 324 323 325 326 325 326 326 326
290 290 293 296 296 296 294 294 293 295 296 291 290 288 288 293 292 289 296 300 301 298 292 295 295 294 298 302 308 311 311 310 311 311 312 313 312 313 313 314 315 315 315 316 317 318 320 321 322 322 322 322 321 322 321 322 321 320 320 316 317 319 317 316 322 325 319 322 323 323 321 321 320 321 326 323 323 323 323 322 324 325 325 326 325 326
289 293 296 296 296 295 294 293 291 291 290 293 293 290 290 293 294 292 293 298 299 299 297 295 291 289 294 297 303 308 310 310 311 312 311 313 314 314 314 314 315 316 316 316 317 318 319 319 320 320 321 322 321 321 322 321 319 321 317 317 318 318 316 317 324 319 323 323 319 321 321 321 318 318 317 319 319 321 326 323 322 324 325 325 325 325
294 297 297 294 294 294 293 290 291 292 288 289 292 293 292 293 294 296 296 294 288 289 295 293 281 285 290 295 302 305 304 307 310 310 310 311 312 311 312 313 314 317 317 317 317 318 319 320 320 319 320 321 321 321 322 322 318 318 318 317 317 318 316 316 319 321 321 322 319 318 318 315 313 312 313 314 315 317 318 320 323 324 325 324 324 324
293 297 295 294 294 294 293 292 294 293 289 286 290 294 294 294 293 296 294 292 284 283 292 294 285 279 285 292 296 302 304 305 307 308 310 311 310 310 311 312 313 316 315 317 319 319 319 319 319 319 320 321 320 321 322 321 318 318 318 317 318 317 317 319 319 321 324 317 317 317 316 315 312 310 311 312 315 318 320 321 322 323 323 323 323 323
298 295 294 294 294 292 290 290 293 292 288 288 293 294 295 293 293 293 295 291 287 293 293 295 287 282 283 286 295 301 303 303 304 306 307 309 309 309 310 312 313 315 316 317 318 319 319 319 320 319 320 320 321 321 321 320 318 318 317 316 318 318 321 318 319 319 324 317 317 315 316 317 313 312 313 319 319 319 322 320 321 322 321 323 323 323
296 295 294 292 291 289 291 293 294 294 290 290 294 296 294 293 292 293 290 289 291 288 285 285 293 283 282 287 296 300 299 299 302 304 305 306 308 308 310 312 314 315 316 317 317 318 318 318 319 319 319 320 321 321 321 320 319 317 316 317 317 318 320 318 320 318 319 321 317 315 315 316 317 314 317 321 324 321 321 319 319 321 320 321 321 322
298 297 296 294 290 291 294 293 293 296 291 293 295 295 296 295 294 296 292 290 289 283 280 285 290 281 279 285 291 295 296 297 300 303 305 306 307 309 310 311 313 315 316 317 318 319 319 319 319 319 319 319 320 321 322 320 318 316 315 317 317 318 316 316 318 318 317 322 320 314 315 312 311 317 318 317 317 318 317 317 318 318 319 319 319 320
297 306 302 296 292 295 294 294 295 295 295 296 294 294 291 293 291 292 290 288 284 280 282 288 293 285 281 285 290 292 293 299 299 300 303 307 308 310 311 311 312 315 316 316 316 317 318 318 319 318 318 319 318 320 320 319 318 316 316 316 316 316 316 317 317 317 317 317 315 314 313 312 312 313 314 315 316 317 318 318 317 317 317 317 318 317
298 299 296 297 302 300 297 295 296 296 296 295 290 291 286 287 287 285 284 285 279 277 283 290 293 291 283 286 289 294 296 301 301 301 303 306 308 309 310 312 312 315 316 316 316 315 316 316 316 317 317 318 319 319 319 318 317 316 316 316 315 316 316 316 317 318 317 317 316 315 314 313 312 314 316 315 315 316 318 319 318 316 317 316 316 315
293 294 296 300 302 296 295 290 293 293 293 292 289 287 284 279 280 278 279 278 278 282 287 290 293 287 284 285 291 295 298 301 303 304 305 307 309 310 311 312 313 315 316 316 315 315 315 316 316 316 317 317 317 318 318 318 316 316 316 316 315 315 315 315 316 316 316 315 315 315 315 314 315 314 315 315 316 315 316 316 316 314 313 313 314 313
288 295 296 296 297 301 293 287 288 286 288 289 287 284 279 276 274 276 277 278 277 283 289 289 292 284 287 291 295 296 300 304 305 306 307 309 309 311 312 313 313 314 315 316 315 315 315 316 316 316 317 318 318 318 318 318 317 316 316 316 316 315 315 314 316 316 315 315 315 315 314 313 317 313 316 314 316 315 315 316 314 314 313 313 312 312
281 284 291 295 291 298 295 290 292 291 289 291 294 288 285 279 280 277 278 278 280 281 285 291 285 283 283 288 297 299 303 305 306 308 309 311 311 312 314 314 314 314 314 315 315 315 316 316 316 316 317 317 318 318 318 317 317 317 316 316 316 314 315 315 316 316 315 315 316 316 314 316 317 315 316 315 317 316 315 314 314 312 312 312 312 313
291 286 291 298 298 299 297 299 297 291 287 290 293 290 287 287 283 283 279 279 281 280 281 284 284 287 289 296 298 302 304 305 308 309 310 311 311 312 312 312 313 314 314 314 315 315 316 316 316 316 317 318 318 318 317 317 317 316 317 316 316 316 316 316 318 316 317 314 314 314 313 314 320 319 316 317 316 315 315 314 313 313 312 312 312 312
286 285 295 298 299 297 298 300 299 295 285 288 288 286 289 292 288 279 280 286 283 279 278 281 286 289 294 298 297 299 302 303 306 308 310 310 311 310 311 312 313 313 313 313 314 315 315 316 316 317 317 318 319 318 317 317 317 317 317 316 315 315 316 316 318 316 316 315 314 313 313 314 317 317 315 314 313 314 314 314 313 313 312 312 310 313
285 286 293 296 294 299 300 298 298 297 293 287 285 289 292 296 293 286 281 279 276 277 280 283 284 284 286 285 295 297 298 300 304 307 309 310 310 309 310 311 312 313 313 314 314 315 315 316 316 317 318 319 319 319 318 318 317 317 317 317 315 315 315 316 317 316 315 314 313 312 312 312 315 316 315 313 313 314 314 312 312 311 311 310 313 315
291 284 290 296 298 299 301 297 295 296 296 292 292 296 290 282 283 284 281 276 276 274 276 279 284 284 287 288 291 294 296 298 301 304 306 307 308 309 309 310 312 313 312 312 313 314 314 315 316 317 318 320 320 320 319 318 318 318 317 317 316 315 316 317 317 317 316 314 314 315 315 313 314 316 315 314 314 312 312 311 310 310 310 310 313 312
292 286 285 293 297 298 297 294 285 290 298 299 299 296 297 289 288 283 281 281 282 277 276 279 283 283 291 291 296 295 298 299 301 302 305 307 308 308 308 309 311 311 311 312 313 314 315 315 316 317 318 320 320 320 320 318 318 318 318 317 316 316 316 316 316 318 315 313 314 315 314 314 315 317 313 314 312 311 311 312 312 310 309 309 314 309
289 290 283 290 296 295 287 292 291 290 290 293 293 290 290 291 293 289 288 287 282 278 275 276 276 281 288 296 296 298 299 300 301 302 304 306 307 308 308 308 310 311 311 312 313 314 315 315 316 317 319 321 321 322 320 319 318 318 318 317 316 315 315 316 316 317 314 314 314 316 314 314 314 314 313 311 310 310 310 311 312 309 309 310 308 309
286 287 286 286 289 286 290 296 298 297 296 293 291 290 291 290 286 281 281 288 288 281 281 278 277 282 292 302 299 297 297 300 302 302 302 304 305 306 307 308 309 310 311 312 313 314 315 316 316 317 319 320 321 321 320 319 318 318 317 317 316 316 316 316 315 316 314 314 314 314 313 313 312 312 311 311 310 310 310 310 310 310 310 307 308 308
295 291 289 284 288 291 295 299 302 302 301 299 296 295 293 289 287 280 281 282 285 287 289 283 282 282 293 299 300 301 301 301 303 305 305 305 306 306 307 309 310 310 311 311 311 313 314 315 316 317 318 320 321 321 321 319 318 318 317 317 316 316 316 317 316 316 314 314 313 313 313 313 313 311 310 309 308 309 309 309 309 310 306 307 308 310
315 288 283 288 290 294 296 298 301 301 299 296 295 298 295 292 292 287 285 285 286 284 283 279 281 282 293 299 300 300 302 302 303 304 304 305 306 305 306 307 308 309 309 310 311 312 313 314 316 317 318 320 320 321 320 320 318 318 318 317 317 316 316 316 316 315 314 313 313 313 312 312 311 310 309 309 309 308 308 309 309 310 307 308 306 307
287 288 288 280 276 283 287 291 292 297 297 292 293 293 298 298 297 295 291 289 284 285 287 280 277 278 290 299 300 301 301 302 303 304 306 305 305 305 306 307 308 310 310 310 311 312 313 314 316 318 319 320 320 321 320 320 318 318 317 316 316 317 317 316 316 315 314 313 312 311 312 312 310 309 309 309 308 308 308 307 308 309 306 306 307 308
289 288 285 281 278 277 276 278 281 287 290 292 296 296 296 297 294 291 287 283 283 284 288 282 278 286 293 297 299 299 299 300 302 304 306 307 307 306 306 307 308 309 310 312 311 311 313 315 317 318 319 320 320 320 320 320 319 318 316 316 317 317 316 316 316 315 313 313 312 311 312 311 310 309 309 309 308 308 308 308 308 308 309 307 307 308
291 292 286 282 278 277 281 287 290 294 291 289 293 294 295 296 296 293 287 284 284 282 285 285 287 288 292 295 296 297 297 298 300 301 302 304 306 307 307 307 308 308 310 312 312 313 313 314 316 318 319 320 320 320 320 320 319 318 316 315 316 317 316 317 316 315 313 312 311 311 312 311 310 310 309 310 308 308 308 308 306 306 307 308 306 306
290 286 292 290 289 289 292 292 296 296 292 293 293 293 294 294 295 293 288 287 287 287 282 286 290 289 291 293 294 295 296 298 300 300 301 303 305 307 308 306 310 307 308 310 310 310 311 313 316 317 317 317 318 319 319 319 319 318 316 315 316 317 317 317 316 315 313 312 311 311 313 312 310 310 310 309 308 308 308 308 306 306 307 308 306 306
290 286 293 294 292 295 296 296 297 296 296 294 294 293 293 294 293 292 291 292 291 286 284 288 290 290 291 293 296 296 297 298 299 302 302 303 303 303 303 303 304 304 305 307 308 310 310 311 313 314 315 317 317 318 318 318 318 318 317 316 316 316 317 317 316 315 313 312 311 311 312 311 310 310 311 311 309 308 307 307 306 305 305 306 306 309
291 286 293 294 293 291 295 296 296 294 294 294 294 294 294 294 293 293 292 293 293 291 291 292 292 293 296 296 296 297 299 300 300 302 301 302 302 303 303 303 303 304 305 307 307 308 308 312 312 313 315 316 316 317 317 317 318 318 317 316 315 316 316 317 316 315 313 312 312 311 312 311 311 311 310 309 309 308 307 305 305 305 304 305 305 306
295 287 295 292 287 290 293 295 295 294 293 291 292 293 294 293 293 293 293 293 294 291 291 291 292 291 294 298 299 300 300 300 301 302 302 303 304 305 304 303 303 304 308 311 312 312 311 311 312 312 314 315 315 316 317 318 318 318 317 316 315 315 316 317 315 314 314 313 313 312 312 311 311 311 310 309 309 307 306 304 304 304 304 304 304 304
295 288 292 288 285 284 288 293 293 293 292 291 289 290 291 292 292 291 292 293 292 291 290 287 287 289 293 295 298 298 300 299 299 300 301 302 304 303 302 302 302 303 307 310 312 312 312 312 312 312 313 314 316 316 316 316 317 317 316 316 315 314 315 316 315 314 314 314 313 312 312 312 311 311 310 309 308 307 306 304 304 303 302 303 303 303
292 289 289 284 286 280 286 291 292 290 289 286 285 291 294 294 294 294 294 296 296 294 287 286 287 290 295 298 298 297 298 299 299 299 300 302 302 303 303 302 303 304 306 310 311 312 312 313 312 314 314 314 315 316 316 317 316 316 317 316 315 313 314 315 315 314 314 314 313 312 313 312 311 310 310 309 308 307 305 304 303 302 302 302 303 303
294 292 286 287 286 281 286 289 288 286 279 281 288 296 298 295 295 293 293 295 295 297 293 290 294 294 294 296 298 296 297 299 300 302 303 303 302 302 303 303 304 306 307 309 312 313 312 312 313 314 315 315 315 317 317 317 317 318 318 317 315 312 313 314 314 314 314 314 313 313 313 312 311 310 310 309 307 307 304 303 302 302 302 303 303 302
293 291 287 287 285 284 284 284 282 277 280 290 294 297 300 299 299 296 295 296 297 297 297 296 296 296 297 299 298 299 300 302 302 303 304 305 303 302 302 303 303 306 308 308 309 311 311 312 312 311 312 314 315 314 314 315 316 315 314 314 313 312 313 314 314 314 314 313 313 313 313 312 311 310 309 309 307 307 304 303 301 302 303 303 303 302
288 288 286 288 283 282 283 281 278 276 284 292 296 297 300 299 296 294 292 294 297 296 297 295 296 297 297 298 300 301 301 302 303 304 304 305 305 303 303 304 304 307 308 309 309 309 311 312 312 312 313 315 315 315 315 315 316 314 314 315 314 312 313 314 314 314 314 313 313 313 313 313 311 311 309 308 307 307 305 302 301 302 302 302 301 300
296 292 290 288 289 284 279 279 284 287 289 288 291 296 297 294 294 291 287 290 296 297 297 296 297 297 298 298 299 300 300 300 299 300 303 305 306 306 306 306 306 306 308 309 310 310 312 311 311 311 312 312 316 316 315 316 315 315 313 314 314 312 313 314 314 314 314 314 314 313 313 313 312 311 309 308 307 307 305 303 301 301 303 302 301 301
298 296 290 289 286 284 283 281 280 280 278 281 289 296 300 300 298 295 292 288 296 298 298 297 296 297 298 298 298 298 299 297 294 296 301 304 305 306 306 307 307 307 308 307 311 312 312 311 311 312 311 312 313 316 316 315 315 315 314 314 314 312 312 313 313 314 314 314 314 314 313 313 312 311 310 308 308 307 306 304 302 301 304 302 300 300
300 300 296 290 287 287 284 281 278 278 279 284 292 297 300 301 301 294 288 283 293 296 299 299 297 298 298 298 297 298 293 289 291 294 300 302 305 307 305 306 307 309 309 308 310 311 311 312 312 313 312 311 314 314 316 315 315 315 313 313 313 312 312 313 314 314 315 315 315 315 314 313 313 311 310 309 308 308 306 304 303 302 303 301 301 302
295 291 287 287 286 285 283 282 280 280 284 291 295 298 300 302 300 291 283 281 293 298 300 300 299 298 298 298 298 297 293 290 292 295 299 303 305 305 307 307 306 308 310 309 308 308 309 311 314 312 311 311 313 313 313 315 315 314 313 313 313 313 312 313 314 315 315 315 315 315 314 313 313 312 311 309 308 308 307 306 303 301 301 300 301 301
287 286 286 285 281 283 285 281 282 284 289 295 299 301 301 302 297 286 281 285 296 300 302 301 300 300 300 300 298 296 298 297 299 299 301 304 305 305 305 307 308 309 310 309 309 309 309 309 313 314 313 313 313 312 312 315 314 313 313 312 312 312 313 313 315 316 316 316 315 314 314 313 313 312 311 310 309 308 307 305 303 301 301 300 300 300
283 286 283 284 285 283 283 284 284 284 289 299 302 301 301 297 286 285 293 299 302 302 302 302 301 301 301 300 300 300 300 302 304 304 303 303 304 304 305 307 307 307 307 308 309 309 307 308 308 308 310 311 313 314 313 314 313 312 311 311 312 312 314 315 315 315 316 315 315 316 315 314 312 313 312 311 310 307 306 304 303 302 301 300 300 300
286 285 283 284 283 285 282 283 281 281 290 303 300 297 298 287 287 297 301 303 304 303 303 303 303 304 303 302 302 302 302 304 303 303 304 304 304 305 305 305 306 306 306 307 309 310 308 308 308 308 308 310 312 315 313 312 312 311 311 311 313 314 315 315 315 316 316 316 316 316 316 315 312 311 312 311 310 308 306 304 302 301 301 299 299 300
291 287 284 282 286 283 282 282 284 286 293 302 301 292 295 299 300 303 301 300 303 305 304 303 303 304 306 305 303 303 304 305 304 303 303 304 304 304 304 304 305 306 307 308 308 309 308 308 308 308 308 308 311 313 313 311 311 310 310 312 314 313 314 315 316 316 315 314 315 315 315 315 313 312 311 310 309 308 306 303 302 301 301 301 300 299
292 290 287 286 289 289 285 285 290 295 301 303 302 301 302 307 307 306 304 304 303 304 306 304 303 304 305 305 304 304 303 304 304 305 303 304 304 305 305 305 305 306 307 307 308 308 307 308 309 308 308 309 309 312 314 313 312 309 309 312 312 312 314 314 314 315 314 314 314 314 315 314 313 311 311 310 309 307 306 304 302 300 300 300 299 299
292 296 293 293 290 293 294 297 298 297 298 300 304 305 305 306 307 306 304 302 304 305 307 305 305 305 304 305 304 302 302 303 303 303 303 303 303 304 304 303 303 304 305 305 306 306 306 307 307 308 308 309 308 309 313 314 312 311 311 312 312 313 314 314 313 313 314 314 314 314 315 315 314 312 311 310 309 309 307 305 303 301 299 299 299 299
293 294 291 290 292 288 284 292 295 295 297 298 299 301 303 305 304 304 304 304 303 304 306 305 304 304 305 304 303 302 302 303 302 303 303 303 303 303 303 302 303 303 304 305 306 305 305 304 306 307 308 307 309 307 310 312 313 313 314 313 313 313 314 313 313 312 312 313 313 313 314 314 314 313 311 309 309 309 308 306 304 302 300 299 299 298
288 295 290 290 290 288 286 291 294 295 296 297 297 296 297 299 303 303 303 302 303 303 304 304 304 304 304 303 303 301 301 302 301 302 302 303 303 303 302 303 303 303 304 303 304 304 304 305 305 306 307 309 309 309 308 310 312 314 314 313 312 313 313 312 312 312 312 312 313 313 314 314 308 310 310 309 309 308 307 306 305 303 301 299 299 298
292 293 286 290 287 289 290 291 294 295 294 296 297 298 298 299 300 301 302 301 301 301 301 300 300 301 300 301 299 299 300 301 302 302 303 303 301 301 301 301 302 302 302 303 304 304 304 304 306 306 307 309 310 310 309 309 311 313 313 313 311 311 311 311 309 311 312 312 312 312 312 313 312 311 310 309 308 309 309 307 305 304 303 303 302 301
290 285 288 287 283 281 285 289 292 287 285 293 295 297 298 299 298 298 297 297 298 298 298 298 300 300 299 298 298 297 298 298 299 298 299 299 300 301 301 301 301 301 302 304 304 303 303 304 304 305 306 308 309 309 309 309 310 312 313 313 312 313 312 311 309 310 311 311 311 312 311 311 311 311 310 309 308 308 308 302 303 304 305 303 301 298
289 288 288 284 284 284 289 292 293 293 292 293 295 297 298 298 297 296 297 297 298 298 298 298 299 299 299 299 298 299 298 298 299 299 299 299 300 300 300 299 300 302 303 303 304 304 304 304 305 304 304 305 306 307 308 309 309 310 312 313 312 312 312 311 310 309 310 310 310 309 311 311 311 310 310 309 309 308 307 307 305 298 297 299 300 297
Wind_Speed
3 1 3 3 4 7 7 7 8 6 9 5 2 4 5 4 2 2 4 7 8 3 6 6 4 6 9 11 11 9 6 4 4 7 5 4 4 6 6 8 9 8 8 5 6 6 5 5 4 3 3 3 5 5 5 4 4 4 3 2 2 2 1 0 0 0 0 1 0 1 1 0 1 2 1 2 2 4 4 3 3 3 3 3 3 3
5 2 2 4 7 10 7 6 4 5 4 4 4 5 3 3 3 4 8 9 8 7 5 4 4 6 12 10 9 8 7 9 10 8 7 8 9 9 8 8 9 7 5 6 4 3 3 2 4 3 3 4 6 4 5 5 5 4 2 3 3 1 1 1 2 2 1 1 2 2 1 1 1 2 2 0 2 3 3 3 3 3 3 4 3 3
2 3 6 8 4 1 2 2 5 6 3 2 6 6 5 2 2 2 3 7 9 5 5 5 7 8 9 10 9 12 13 9 11 13 13 13 11 9 9 7 7 7 7 7 6 6 6 5 4 3 4 4 5 5 5 4 4 4 4 4 3 3 3 2 2 2 1 0 1 1 1 2 1 1 0 1 2 2 3 3 3 3 4 4 3 3
4 3 7 4 1 1 3 5 3 5 3 4 2 6 5 5 4 1 3 6 7 7 4 6 9 6 1 5 10 11 11 8 10 11 11 10 12 11 12 10 9 9 10 10 9 8 6 6 6 4 5 5 4 4 4 4 6 5 5 4 3 3 2 3 1 1 0 0 1 2 2 1 1 3 2 4 3 3 3 3 3 3 3 3 3 3
6 5 3 1 1 1 3 2 3 7 2 2 1 2 4 3 5 5 6 6 6 4 4 6 2 4 2 6 4 5 3 4 7 8 7 7 7 6 4 4 5 11 11 10 9 8 7 6 5 5 4 5 5 5 5 5 5 5 6 5 4 4 3 2 1 1 0 1 2 3 3 2 3 4 5 4 3 2 0 1 3 3 3 3 4 4
1 1 1 5 5 7 5 3 4 7 5 1 1 2 3 7 6 2 2 4 1 2 3 8 2 1 1 3 9 7 3 6 5 9 11 11 7 4 6 6 5 6 7 11 12 10 8 7 5 4 4 5 6 6 6 6 5 4 4 3 3 3 3 2 1 1 2 2 1 2 1 1 2 1 2 2 3 1 2 2 1 4 5 4 4 4
2 3 6 5 7 7 6 3 0 3 5 5 2 1 0 1 4 6 5 4 0 2 3 2 2 1 4 2 8 8 7 9 2 8 11 10 7 5 6 5 7 8 6 5 7 8 8 7 7 6 5 6 6 6 4 4 5 4 4 4 4 4 3 2 1 3 3 1 1 1 2 3 3 3 1 1 2 3 1 1 3 4 4 4 5 4
1 3 7 6 7 6 7 6 3 5 6 1 3 3 3 4 3 3 6 5 1 1 3 4 3 1 1 2 4 10 11 7 6 9 9 9 7 7 6 5 6 8 8 9 9 10 10 9 10 9 7 6 8 6 4 4 4 4 4 4 4 3 3 2 1 1 1 2 3 1 2 3 3 3 2 3 2 1 1 3 3 5 4 4 4 4
2 1 4 5 4 5 2 3 5 2 2 2 2 1 2 2 3 1 5 7 3 4 3 4 2 3 1 1 2 9 7 4 11 12 11 9 8 7 6 6 6 7 9 10 9 10 10 10 9 7 7 6 5 5 6 5 5 4 4 4 3 3 2 2 1 1 0 2 2 2 3 2 1 2 4 3 0 1 1 3 3 4 3 3 4 3
2 1 3 6 5 2 3 3 3 2 2 3 2 2 0 3 2 1 0 2 1 4 3 3 1 2 2 3 4 1 3 7 12 14 11 8 10 9 8 6 5 5 6 7 9 9 9 9 8 6 5 4 5 5 5 4 4 4 4 4 3 3 3 3 2 2 1 1 3 2 1 3 1 1 1 1 2 1 2 4 4 3 4 3 4 4
2 2 5 5 2 2 2 3 2 3 3 1 4 2 4 4 5 3 3 2 4 2 3 4 3 4 0 3 7 8 8 11 6 1 4 5 7 7 7 6 6 7 7 7 6 5 5 5 6 5 6 6 4 4 5 6 6 5 5 4 4 3 3 3 3 2 1 1 2 3 2 2 2 2 2 3 3 3 4 5 3 3 3 3 3 4
2 0 2 1 1 2 2 3 5 3 2 3 1 1 5 2 7 5 5 6 4 2 6 4 2 4 4 3 5 9 3 9 13 11 11 10 10 10 8 6 6 7 7 7 6 5 4 4 4 4 6 6 5 5 6 6 5 6 5 4 4 2 3 3 3 2 0 1 2 3 3 3 1 4 4 5 4 4 6 4 4 1 2 2 2 3
3 2 1 1 0 8 2 5 7 7 9 6 4 7 1 2 5 2 6 4 0 1 4 1 1 2 1 7 7 5 1 5 9 12 14 13 11 10 8 7 6 6 7 8 7 6 6 7 7 7 7 5 4 6 7 7 6 6 5 5 5 4 4 4 3 3 1 2 3 3 3 2 2 3 4 4 4 2 5 5 4 3 2 1 3 3
5 1 2 2 5 1 4 4 3 5 5 6 4 3 5 2 2 0 1 1 3 7 7 1 1 1 2 6 4 5 6 10 11 10 11 12 11 10 9 6 6 6 8 8 7 7 7 7 7 7 7 6 5 6 8 7 6 5 5 5 5 5 4 4 3 3 3 3 3 2 3 2 3 3 4 4 5 4 4 5 5 4 3 2 1 1
5 5 3 1 1 2 1 4 4 3 0 1 2 4 4 5 1 0 1 1 1 5 8 6 2 2 1 3 4 10 10 8 7 6 7 9 9 8 6 5 5 5 6 7 7 9 9 9 8 8 7 6 5 6 7 6 7 6 6 6 5 5 4 4 5 4 4 3 2 2 3 2 3 4 4 4 5 6 5 4 5 3 2 2 1 0
1 4 6 3 4 2 1 1 2 3 3 1 4 6 5 0 6 3 4 3 2 2 5 6 1 1 2 3 3 1 5 4 4 5 5 6 4 5 5 6 7 7 7 7 7 8 8 8 8 7 7 7 5 7 7 8 7 7 7 7 7 7 6 5 5 4 5 4 4 4 4 3 3 3 3 3 3 4 5 5 5 4 3 3 1 0
5 2 4 9 3 1 0 1 2 3 1 4 4 2 3 6 6 3 2 1 2 4 1 2 6 5 5 8 8 7 5 4 5 5 5 5 5 5 7 7 7 8 7 8 8 9 9 8 8 9 9 7 7 7 9 9 9 9 8 8 7 6 5 6 6 6 5 5 4 4 4 4 4 5 5 5 4 5 4 5 4 4 4 3 2 0
1 5 5 7 7 5 5 1 2 1 3 3 5 5 1 2 6 3 1 3 4 2 3 2 2 3 4 1 3 4 3 4 7 7 8 7 7 9 8 8 9 10 11 9 8 7 8 9 10 9 8 8 9 9 9 10 9 9 9 9 9 7 8 7 6 6 6 6 5 4 4 4 5 5 5 5 5 5 5 4 3 2 2 2 0 0
2 3 1 2 4 6 8 3 6 4 5 5 1 3 5 1 5 5 4 1 2 1 3 4 3 2 2 1 1 4 5 6 5 4 5 7 8 10 8 9 8 6 5 6 8 8 9 10 10 10 11 10 9 9 10 9 8 7 7 8 9 9 9 8 6 5 5 6 5 5 4 4 4 4 4 3 4 4 5 4 3 3 3 0 1 2
5 1 4 4 4 4 3 6 4 6 6 4 3 7 1 6 1 3 0 3 3 1 3 3 5 1 2 1 1 3 5 7 6 5 9 12 13 11 9 8 8 8 8 8 9 9 10 11 12 13 12 12 11 10 10 10 9 10 9 8 8 7 6 6 7 7 7 6 6 5 4 4 4 4 4 5 6 5 5 5 4 4 2 1 1 1
1 2 1 6 7 3 4 3 3 1 2 6 9 4 5 1 1 3 2 2 2 1 1 0 4 3 6 3 2 5 8 8 9 11 10 9 9 9 7 8 8 9 9 9 10 11 11 11 11 11 11 11 9 7 8 9 11 11 9 9 9 10 8 8 8 7 7 6 6 6 5 4 4 5 5 6 6 6 5 4 4 4 4 2 1 1
2 3 0 4 6 3 3 2 3 1 1 4 4 3 2 3 3 3 1 3 2 3 0 1 1 6 7 4 4 3 3 2 6 8 7 6 7 7 7 8 10 10 10 11 11 10 10 9 10 10 9 7 7 8 10 10 9 9 10 10 9 8 9 9 8 8 7 6 6 6 5 5 4 5 6 6 5 5 5 5 5 4 2 3 0 1
3 2 2 2 1 3 4 3 1 5 6 4 6 2 3 3 6 5 1 3 1 1 2 2 1 4 4 2 2 3 4 5 2 5 6 8 9 9 10 11 11 11 12 12 11 9 10 10 11 12 12 12 13 13 12 11 11 11 11 10 9 10 10 9 9 7 7 7 6 6 5 5 5 4 6 7 5 5 5 5 4 4 4 3 1 1
5 3 4 5 6 6 5 2 1 5 4 5 4 1 3 3 2 6 3 4 2 2 2 1 0 5 5 1 1 3 1 3 4 5 5 3 1 4 8 9 9 7 7 7 8 8 10 9 8 8 9 11 11 11 12 11 10 10 10 10 10 11 11 8 7 7 7 6 7 6 5 5 5 6 6 6 5 6 5 4 4 4 4 3 3 2
1 2 3 2 4 8 8 8 7 5 6 2 1 3 0 0 3 1 4 2 1 3 4 4 2 4 5 4 5 1 2 2 3 4 6 5 5 3 3 4 6 9 9 7 8 10 9 8 9 11 12 13 12 11 10 11 11 10 10 9 11 10 10 9 8 8 7 7 7 6 6 5 6 6 6 6 5 5 4 4 4 4 4 3 2 1
4 1 2 1 1 0 3 3 5 7 7 4 1 4 4 3 4 5 1 1 1 2 3 2 2 7 8 6 6 5 6 4 2 3 2 4 7 6 5 6 5 5 7 8 8 6 10 12 12 11 12 11 11 11 10 10 9 9 9 10 10 10 9 9 8 9 8 8 8 7 6 7 6 7 7 6 5 5 5 4 4 4 2 3 3 1
1 1 3 4 4 3 5 5 5 0 3 4 9 5 6 3 4 4 4 3 3 3 3 6 5 4 7 7 5 7 3 2 4 2 4 6 5 6 5 3 5 5 5 6 6 9 8 7 11 13 13 12 10 9 9 10 10 9 9 10 10 10 11 10 10 9 9 8 8 7 6 7 7 7 6 6 6 5 4 4 4 4 4 4 4 2
3 3 1 3 2 3 4 4 5 2 2 4 5 7 4 2 0 1 0 6 4 4 4 4 5 2 7 6 6 6 4 3 0 1 4 1 1 1 1 4 4 2 3 3 4 4 5 9 11 11 9 7 8 8 9 9 10 11 10 11 11 11 11 9 10 9 9 9 8 8 7 7 6 6 6 5 5 4 4 4 4 4 4 4 4 3
3 1 2 1 2 3 3 3 3 4 1 3 6 6 5 3 2 2 2 3 3 3 6 6 3 2 5 4 4 4 4 3 1 1 1 2 5 5 3 2 5 5 4 2 4 6 6 6 8 6 6 8 8 10 10 9 9 8 9 10 11 11 11 10 10 10 10 9 9 8 7 6 5 5 5 5 5 4 4 4 4 4 4 4 3 2
3 0 1 1 1 3 6 6 5 5 5 6 4 6 6 4 4 2 3 3 4 3 6 7 5 6 6 4 4 5 6 5 1 2 4 5 6 5 4 5 5 4 2 1 2 5 5 8 6 7 7 8 10 9 8 9 9 10 11 11 10 10 9 10 11 11 10 10 10 8 7 7 6 6 5 5 6 5 4 4 5 5 4 4 3 3
3 2 4 1 1 1 4 6 4 3 3 5 6 7 7 4 4 2 2 3 1 1 2 2 1 3 5 6 6 6 1 0 5 6 5 5 6 6 5 4 4 4 2 1 2 4 3 3 6 5 5 6 7 10 10 10 10 10 10 9 9 10 10 10 10 10 11 11 9 9 8 7 7 6 7 6 5 4 4 5 5 5 4 4 3 4
2 2 2 2 1 4 3 2 5 5 6 4 4 5 5 2 2 1 1 2 1 1 1 2 3 3 5 4 5 4 1 3 6 4 4 3 4 5 5 4 4 3 2 2 2 4 4 2 5 5 7 8 9 8 8 8 8 8 11 9 10 9 7 8 9 11 11 10 10 9 9 8 8 7 7 6 6 5 5 5 4 5 5 4 3 3
2 3 1 0 0 2 5 1 3 4 7 8 3 2 6 5 2 3 3 0 2 2 1 0 5 5 5 3 2 2 1 1 4 4 4 3 3 5 5 4 3 1 1 1 3 3 1 1 5 9 9 7 7 8 10 10 9 11 11 10 9 6 8 9 9 9 9 9 10 10 9 9 9 8 8 7 6 5 6 6 5 5 4 4 4 4
3 4 2 2 1 2 2 3 2 5 4 4 3 1 1 5 5 4 4 5 4 0 2 3 4 4 3 2 1 4 1 2 5 2 2 7 5 3 2 3 2 1 1 0 0 1 4 0 1 5 8 9 9 10 9 9 12 13 11 9 6 7 9 10 9 9 9 9 9 9 9 9 9 9 9 7 6 6 6 6 7 6 5 4 3 5
4 3 2 2 2 2 1 3 4 2 6 7 7 7 4 6 2 3 3 2 4 5 4 4 3 4 4 1 1 2 5 4 4 4 3 0 3 4 4 4 4 2 1 0 1 1 2 2 1 1 4 5 7 6 4 5 7 5 3 4 7 6 7 8 9 9 9 9 9 8 9 9 9 9 8 8 8 7 7 7 6 5 5 5 5 5
4 5 2 0 2 2 2 2 1 3 4 5 9 8 2 2 1 3 3 3 5 4 3 2 2 2 3 5 6 6 5 4 6 5 4 3 1 4 4 4 4 3 3 2 1 1 2 1 0 2 3 5 4 5 6 9 7 6 6 5 8 7 7 8 9 9 8 9 9 10 10 10 10 9 9 9 8 8 7 7 7 7 5 4 4 4
8 5 4 2 0 3 2 4 6 4 7 3 3 3 1 4 1 1 1 2 3 4 3 1 4 4 4 4 2 2 4 5 7 6 3 1 1 1 3 2 3 2 2 3 3 2 3 3 2 2 1 1 6 6 8 7 6 6 5 6 7 7 7 8 9 9 10 10 10 11 11 11 10 10 10 10 10 9 8 8 7 5 5 5 6 5
8 8 4 4 2 3 3 1 3 3 3 6 6 6 5 4 3 5 3 2 5 6 3 3 3 4 6 5 5 2 2 9 6 3 5 5 3 3 3 3 3 3 1 3 3 4 5 4 3 3 2 1 2 6 6 6 7 7 7 8 6 7 8 9 11 10 11 11 11 11 11 10 11 10 10 10 11 10 9 8 6 7 6 8 7 6
3 6 7 6 3 2 2 1 2 2 5 6 7 7 9 2 2 3 4 1 3 4 6 2 4 4 4 5 4 5 5 2 1 3 6 3 2 1 3 3 3 2 1 1 1 4 5 5 4 3 1 1 2 4 6 6 7 8 8 8 7 7 8 11 11 11 12 12 11 10 10 10 10 11 11 11 11 10 10 10 10 7 6 7 7 7
7 4 4 3 1 0 4 2 2 2 1 3 4 4 4 3 1 4 2 1 3 8 7 5 6 5 5 2 3 7 6 2 2 3 3 3 3 2 0 2 3 4 5 3 3 2 4 4 3 4 3 3 5 4 4 6 7 7 7 7 7 8 9 11 11 9 7 6 8 9 10 10 11 11 12 12 11 10 11 8 7 8 8 7 7 7
2 2 2 4 3 1 4 1 2 4 3 3 4 6 7 1 3 2 3 2 3 3 4 3 4 4 4 5 5 5 1 2 3 4 4 4 1 3 3 1 2 2 2 4 5 4 3 2 4 6 6 5 4 4 3 6 7 7 7 7 7 10 8 6 6 8 9 9 9 8 9 9 12 13 12 11 12 11 9 8 10 8 8 8 7 6
3 1 2 2 1 3 4 3 5 3 5 2 4 1 3 4 3 1 1 3 4 4 3 3 5 5 3 2 1 0 4 4 5 5 5 4 1 3 3 3 4 4 5 4 5 5 4 5 4 3 5 5 4 4 4 5 7 7 7 6 9 9 5 7 7 7 6 8 9 9 6 4 6 8 9 9 9 8 8 8 8 9 9 8 8 8
2 1 1 1 1 1 2 0 2 1 0 0 4 5 5 4 5 4 2 2 3 1 1 2 2 4 1 6 3 3 4 6 5 6 6 6 5 4 4 5 5 5 5 6 7 7 4 6 7 7 5 6 4 5 5 6 7 7 7 8 12 7 7 7 8 8 8 8 11 12 13 14 13 10 8 9 10 10 10 8 9 8 9 9 8 9
2 1 1 2 3 1 1 0 1 4 2 1 2 1 2 3 2 4 2 3 4 3 3 4 3 2 3 3 4 5 5 6 7 5 5 6 6 6 5 5 5 5 5 5 5 6 4 5 7 8 7 5 4 5 4 6 7 7 8 12 9 7 7 8 8 9 10 10 10 12 14 13 11 11 9 10 10 10 10 10 9 9 9 9 9 8
1 0 3 1 3 1 2 3 4 2 0 2 1 2 2 2 2 5 4 4 4 6 5 3 5 5 3 2 3 4 5 7 10 8 5 6 6 5 5 6 6 7 7 7 7 6 4 4 5 7 9 9 6 5 6 6 7 7 8 9 5 8 9 8 8 9 10 11 11 12 10 8 7 8 8 9 11 11 10 10 10 10 8 9 9 9
1 1 1 1 2 2 3 4 1 4 4 6 2 1 1 2 3 5 5 4 5 6 5 5 5 5 5 4 3 5 5 6 8 9 7 7 6 6 5 5 6 6 6 5 6 6 4 4 4 5 6 10 9 6 6 7 6 8 8 6 7 9 10 10 10 10 11 11 11 11 11 12 9 10 12 11 11 12 12 13 12 11 9 10 10 10
1 2 3 1 1 3 2 7 8 3 4 2 1 2 2 3 4 3 2 3 3 4 4 5 6 6 6 4 4 5 8 8 7 9 8 6 6 6 6 6 7 6 6 7 9 6 6 5 4 5 6 6 8 6 5 6 7 10 10 9 8 8 9 10 12 11 10 11 10 9 10 13 11 10 11 10 10 10 10 10 11 11 11 11 11 10
2 2 4 0 0 1 2 4 5 4 4 3 3 5 5 5 4 4 4 3 3 3 4 5 3 4 4 5 6 5 6 6 5 7 6 6 6 6 6 6 6 6 7 6 7 6 5 5 5 5 5 7 8 7 5 5 8 10 10 9 7 7 8 10 11 11 11 12 10 10 11 12 15 14 10 11 12 11 9 9 10 11 12 13 13 12
3 4 3 0 2 4 3 3 5 7 7 9 11 8 7 4 4 6 5 5 6 7 8 7 3 5 3 6 4 3 4 6 5 5 6 6 6 6 6 6 6 6 6 6 7 5 5 5 6 6 5 7 7 6 6 6 7 8 9 10 4 1 4 8 10 11 12 12 10 11 12 12 12 12 12 12 12 13 14 14 13 13 13 14 13 14
3 5 2 4 4 4 1 4 3 6 5 9 7 7 8 8 5 7 5 6 6 8 8 8 11 8 5 4 4 3 3 4 5 3 4 4 5 6 6 6 6 6 6 6 4 4 4 4 4 5 5 7 6 6 6 7 7 7 7 7 5 5 5 5 6 8 10 10 11 11 11 10 10 11 11 12 12 12 10 13 17 16 15 13 15 19
1 1 3 2 0 4 6 6 2 3 4 7 6 7 8 6 5 5 5 6 7 7 7 7 7 8 8 7 1 1 3 2 4 1 2 3 4 3 3 3 3 4 5 5 5 6 5 5 5 5 5 6 5 6 6 7 8 7 7 6 5 4 5 4 5 7 7 9 9 13 12 12 11 11 11 11 12 11 12 10 9 12 15 13 16 19
Wind_Direction
112 68 250 225 212 215 222 190 183 210 179 186 136 111 182 152 246 220 185 187 188 123 220 203 191 167 186 190 185 183 169 180 179 171 185 194 199 209 192 173 177 178 181 184 163 158 160 164 177 180 168 167 143 151 156 149 152 163 168 141 206 250 291 182 227 32 51 100 39 24 51 188 270 162 101 40 24 50 38 44 47 38 30 27 24 28
82 81 252 188 199 207 215 194 176 207 163 136 163 157 175 155 182 196 185 190 181 163 238 203 185 188 193 195 180 166 164 186 189 192 190 193 201 203 198 185 179 170 124 147 149 160 156 167 192 177 172 163 135 156 138 152 169 178 169 171 214 278 75 150 141 144 147 174 169 156 187 138 192 103 98 24 13 59 44 31 36 35 16 26 20 11
66 160 226 229 211 262 321 63 112 159 171 87 145 174 119 260 217 295 188 176 188 165 252 170 201 221 198 188 177 179 188 194 194 186 194 189 202 201 204 195 171 139 148 163 177 177 174 177 194 177 179 186 166 170 159 168 161 169 184 205 200 205 140 158 156 139 124 164 134 121 190 154 88 332 143 166 132 81 58 19 358 11 27 33 26 25
60 297 252 251 25 14 335 351 57 186 142 100 78 94 172 205 123 234 258 184 189 177 205 167 191 250 121 164 186 195 190 199 202 199 202 194 195 196 200 192 175 160 154 168 178 183 188 185 188 176 179 189 176 170 172 164 170 172 188 197 188 181 168 153 166 157 202 162 84 49 63 46 129 109 85 68 49 69 57 19 334 13 28 29 36 34
175 224 236 46 42 144 266 338 67 79 59 348 110 128 132 145 228 162 217 193 186 258 74 108 91 333 147 137 191 217 202 195 204 208 223 229 228 215 183 166 175 174 162 165 172 179 180 186 199 188 185 175 177 186 181 180 182 171 186 195 174 170 178 163 102 78 218 38 12 20 3 26 38 42 33 53 24 13 47 22 18 13 30 42 39 26
33 270 60 31 21 23 19 26 32 115 96 324 261 172 171 169 196 243 66 97 23 328 266 138 39 286 281 190 180 176 163 200 206 194 214 216 216 186 190 183 161 172 168 165 170 177 178 177 193 194 175 179 189 192 193 183 181 168 189 194 163 160 150 144 108 111 55 16 27 357 55 22 46 58 76 120 155 158 124 131 283 35 36 46 45 27
165 330 79 65 53 44 30 60 176 134 118 75 287 229 319 47 115 183 121 103 37 143 274 105 125 264 321 160 161 179 175 194 243 218 216 216 216 212 208 179 172 162 156 146 154 166 172 179 182 193 185 190 188 206 186 173 175 176 177 193 161 157 164 170 152 79 78 53 26 247 182 168 169 165 254 249 241 167 158 147 72 55 45 45 55 33
22 11 50 47 66 51 21 18 309 118 92 90 252 296 344 32 5 136 158 170 199 249 307 44 109 137 337 301 192 167 162 186 218 233 234 226 225 225 218 190 173 168 165 159 163 175 182 180 185 186 190 191 194 193 173 178 168 171 184 187 161 155 160 181 174 79 96 145 134 118 138 172 172 170 186 192 200 226 131 100 88 72 50 45 50 48
140 353 90 75 89 81 45 255 263 129 107 215 239 147 332 286 303 106 115 165 165 102 293 326 29 62 295 291 113 139 134 210 220 224 230 227 228 230 222 205 176 172 170 166 168 174 180 186 190 184 188 200 199 183 180 186 178 174 187 190 153 165 164 189 161 84 124 170 142 152 144 130 224 189 205 192 137 147 99 97 56 74 62 53 44 45
295 152 176 133 103 58 237 260 268 96 69 281 267 15 29 326 220 234 75 101 2 65 309 272 145 112 286 284 118 90 157 197 218 220 225 221 221 221 222 210 171 162 164 177 180 177 181 188 187 186 180 189 205 195 182 174 155 171 186 190 158 183 180 179 136 115 114 115 120 99 122 141 79 85 117 47 44 48 52 64 68 68 52 31 35 18
230 288 179 102 144 194 200 263 230 309 243 185 54 4 352 20 360 17 60 79 58 30 257 249 217 124 226 265 183 149 207 200 188 215 246 235 234 231 227 205 177 170 174 175 179 182 187 186 181 166 186 205 205 189 179 174 173 173 179 185 168 204 195 192 152 135 217 118 138 126 135 156 134 101 121 100 85 93 80 89 78 84 71 33 23 11
345 73 24 319 132 79 112 349 350 343 5 69 53 49 34 336 3 25 346 35 79 280 263 252 185 167 145 295 265 234 267 171 163 189 199 206 210 215 212 205 185 172 177 178 172 179 173 169 190 175 198 205 205 182 188 183 172 171 179 170 177 201 193 200 146 125 54 130 148 121 130 136 181 128 150 140 145 136 120 119 111 96 84 57 19 14
38 30 267 330 250 102 6 58 344 11 16 33 36 34 78 278 32 353 7 18 115 226 260 308 335 51 189 216 209 230 173 169 179 172 191 192 198 206 208 200 186 173 172 180 183 178 179 186 190 194 205 202 197 191 189 184 178 175 175 170 169 199 204 198 150 145 138 140 168 141 134 148 126 113 133 138 132 143 123 131 122 100 85 7 41 359
295 288 17 323 11 57 102 79 341 13 342 38 51 80 70 45 32 91 276 232 330 299 271 270 321 109 260 296 224 144 188 186 183 189 182 178 188 197 200 187 180 177 180 185 184 184 187 190 194 197 200 199 196 195 188 184 179 178 176 175 168 204 197 196 164 153 163 190 194 163 150 174 114 141 139 145 138 144 127 128 135 146 159 153 168 1
56 350 311 51 313 291 110 151 167 172 159 158 182 118 157 147 159 195 247 52 268 230 288 316 61 220 64 257 260 165 178 191 184 166 170 179 183 190 187 172 168 178 188 183 186 191 192 192 191 197 199 200 196 192 189 184 183 175 179 173 182 193 206 187 182 161 181 205 190 183 183 138 102 152 136 151 149 142 137 139 136 153 166 156 213 353
355 211 253 222 244 132 87 237 156 104 57 278 125 97 55 248 157 81 200 153 241 325 352 344 355 181 130 288 346 178 110 86 110 128 147 161 151 153 164 182 189 191 190 191 192 194 198 195 193 193 199 199 193 191 191 189 184 181 184 183 186 189 191 192 179 178 178 190 176 163 165 136 134 149 139 134 138 142 139 146 143 163 182 203 198 262
22 333 291 323 21 77 55 354 353 112 65 272 54 347 245 176 108 88 1 352 45 50 293 234 354 328 304 20 20 21 77 114 121 139 156 166 167 168 189 193 194 197 194 194 197 197 197 197 197 197 196 195 187 190 194 193 188 186 184 184 189 190 187 189 185 179 179 180 168 182 181 136 142 148 153 158 160 149 151 147 155 156 189 204 186 163
134 255 304 33 355 328 327 53 37 60 138 64 47 279 287 37 116 112 161 342 55 103 275 30 24 310 45 144 327 57 91 171 162 168 173 175 172 184 197 196 196 199 200 198 199 197 198 199 199 198 198 195 193 192 195 197 193 189 183 183 184 186 187 196 182 175 175 172 172 180 184 166 163 172 171 168 155 154 144 149 139 143 156 177 220 199
101 2 303 349 333 302 349 36 354 341 53 119 167 237 79 323 12 324 83 9 352 348 301 335 308 338 25 15 17 141 152 209 200 174 159 179 193 200 197 205 208 206 193 194 198 199 199 200 201 199 201 198 193 193 193 193 189 188 189 187 184 187 190 187 181 175 177 174 169 174 193 185 178 179 183 153 128 131 134 143 162 172 178 162 9 19
49 124 305 304 23 310 12 56 10 307 340 48 62 24 20 103 117 41 133 179 118 289 46 304 25 333 299 245 202 204 214 201 183 186 199 191 196 196 198 196 195 197 201 201 201 203 203 203 202 201 199 197 194 193 193 188 186 190 189 184 189 186 182 181 178 176 178 185 167 177 191 199 182 177 162 149 140 140 144 158 159 160 137 147 42 357
57 112 288 281 311 26 7 5 348 206 90 2 39 359 354 17 210 114 27 68 144 164 154 167 1 292 283 247 240 136 173 192 184 194 202 206 204 200 193 186 193 198 202 204 205 204 205 205 206 206 204 205 200 193 187 186 190 193 185 187 184 181 184 184 186 179 183 172 174 168 187 185 176 163 146 136 144 143 151 156 158 166 179 120 63 18
59 15 347 300 11 11 235 270 17 130 149 136 140 97 175 62 43 59 295 337 59 91 232 94 244 263 278 350 315 341 331 245 206 184 189 206 209 204 195 201 192 194 205 205 207 208 208 209 209 210 205 202 192 191 192 193 190 188 188 189 183 180 184 185 187 185 178 175 167 176 186 182 170 155 147 143 151 147 154 150 163 181 140 123 211 74
143 153 84 345 218 246 263 302 311 120 103 108 111 96 128 115 105 95 99 277 12 296 110 154 150 272 238 271 59 32 78 117 152 149 171 189 196 199 204 202 200 196 197 202 204 206 209 207 205 201 197 196 196 196 193 190 191 190 189 184 183 182 192 187 185 183 172 167 167 182 187 172 157 160 150 149 156 154 161 155 155 161 143 140 184 76
67 58 26 299 310 293 310 297 356 48 65 26 357 57 59 15 161 164 173 188 135 318 41 3 323 251 280 255 255 116 97 132 167 164 175 226 315 258 214 203 204 211 222 209 203 206 209 207 200 195 198 199 200 198 194 192 191 189 186 185 181 189 189 186 180 175 168 165 173 178 171 166 158 156 155 152 162 158 168 158 141 143 130 155 161 110
64 301 109 4 356 339 341 353 352 357 56 76 315 291 183 356 75 138 97 49 83 232 162 122 233 281 271 329 314 17 73 112 189 230 168 184 231 199 236 236 210 216 212 200 203 208 204 195 192 199 198 198 198 196 192 189 191 186 187 184 185 190 186 181 176 171 170 168 172 176 172 164 158 157 156 156 161 165 168 150 139 145 145 132 133 157
92 191 89 107 113 334 314 338 318 333 316 297 357 344 329 10 339 7 325 4 103 281 111 136 247 252 278 314 305 328 356 339 269 247 305 212 196 201 184 213 225 216 215 206 208 210 199 199 201 199 200 200 194 190 190 192 191 189 187 190 186 184 182 183 175 171 166 170 170 177 177 167 165 166 163 161 161 161 159 150 156 151 153 156 155 216
127 62 93 147 149 178 208 225 244 213 338 11 307 315 305 6 48 93 108 94 211 218 192 225 192 261 296 292 310 312 321 293 314 309 196 208 231 205 190 198 200 221 230 239 216 216 212 210 207 204 201 198 186 184 187 188 191 191 189 191 192 186 183 182 175 170 168 170 172 175 183 172 175 172 168 165 166 161 147 152 164 145 168 187 158 130
61 46 343 134 161 197 204 220 256 232 278 283 314 299 310 315 71 75 66 274 186 90 301 263 207 173 254 272 281 290 283 287 294 263 286 30 100 130 57 326 297 284 277 286 297 298 259 230 214 207 199 182 180 185 189 190 190 189 189 195 195 191 186 182 172 170 171 169 174 178 184 183 170 170 169 168 166 166 161 154 161 164 164 166 167 142
134 127 258 80 312 267 237 249 292 357 319 296 307 289 274 284 22 6 261 229 143 234 226 252 201 207 255 242 258 244 226 235 248 327 200 92 91 85 113 146 67 55 38 350 287 261 233 241 249 222 171 183 180 187 188 187 190 194 199 200 198 193 191 177 173 173 173 173 176 183 182 173 166 162 165 165 167 163 150 164 177 170 168 163 194 123
82 189 211 157 342 330 326 329 347 20 330 338 326 304 288 286 300 242 250 234 174 228 235 248 254 244 239 250 216 226 212 205 221 85 97 96 114 134 121 85 97 108 146 209 273 285 253 220 213 220 190 185 190 186 185 186 189 194 199 204 200 197 190 174 180 175 176 179 181 177 173 169 163 162 164 166 174 171 164 168 177 171 178 168 188 156
103 277 204 104 60 307 293 317 357 26 354 330 308 292 284 307 323 289 212 284 157 287 8 38 221 285 269 216 222 244 172 350 91 121 131 135 127 114 97 77 66 85 95 96 11 358 0 182 199 195 206 197 188 191 190 192 192 195 203 204 199 198 191 183 180 181 180 184 180 174 168 164 167 160 172 179 175 162 162 174 173 177 179 174 155 157
77 259 44 73 56 312 298 352 324 350 351 337 307 314 331 348 354 286 310 231 140 221 316 42 17 303 283 307 290 312 9 90 133 137 125 132 128 105 98 91 77 78 70 62 31 29 13 140 181 201 204 202 200 192 193 194 194 194 205 202 202 195 182 189 186 185 186 183 175 171 169 169 164 168 176 174 177 166 170 172 173 179 180 174 164 127
168 124 164 63 313 258 265 42 347 15 10 353 332 301 323 291 226 280 293 235 208 147 96 151 232 221 244 280 301 306 322 145 126 156 121 87 92 97 101 88 87 111 168 142 58 354 17 255 211 194 207 212 198 194 202 193 187 203 206 202 200 164 178 191 191 188 186 183 177 175 172 166 167 172 173 181 172 164 164 174 181 182 178 184 183 121
136 144 184 164 168 243 282 329 19 34 7 255 230 244 330 281 301 305 287 292 297 270 243 187 231 270 281 323 356 280 306 135 154 190 165 141 116 87 69 82 55 84 166 190 235 343 310 349 296 228 205 199 202 207 201 188 196 206 206 198 175 177 184 186 187 186 186 182 183 177 174 171 170 173 177 174 167 163 168 176 188 188 189 182 170 132
179 165 196 166 119 259 316 20 35 313 238 241 280 280 250 268 266 208 261 265 326 350 358 353 328 357 314 319 221 111 120 75 75 96 44 52 119 119 113 46 33 7 333 223 211 263 287 311 59 181 229 219 208 202 188 218 225 225 198 171 186 192 180 187 184 186 183 183 183 177 176 175 174 175 173 172 168 168 176 181 186 187 189 178 184 153
183 158 159 43 136 39 50 67 39 242 238 280 292 294 309 85 119 58 347 345 346 337 301 305 288 293 318 28 75 93 91 99 70 43 30 8 106 120 78 46 28 49 350 283 232 230 237 276 235 147 202 220 210 197 195 209 205 195 202 181 190 189 186 182 185 188 180 186 185 183 181 179 178 176 172 171 170 173 182 185 185 187 188 179 187 147
174 114 117 200 124 207 195 157 222 297 331 337 356 13 28 290 293 144 244 279 300 319 342 119 60 30 17 33 360 88 120 75 50 3 345 18 82 143 106 75 61 34 310 276 217 246 237 238 238 243 240 248 196 203 208 204 183 197 188 184 197 189 186 181 187 190 189 191 189 187 184 182 178 178 176 175 175 179 182 185 191 193 180 173 190 165
164 162 210 156 263 122 147 345 346 13 303 276 243 272 273 232 186 162 102 311 319 351 18 98 58 38 33 7 21 330 21 63 35 349 303 316 336 45 19 37 19 78 343 298 300 286 294 287 284 273 201 234 229 212 209 187 180 182 189 197 190 184 188 187 196 193 193 196 191 188 184 184 179 178 176 179 186 183 184 184 180 186 181 179 184 188
42 108 141 148 174 94 62 127 201 176 246 225 284 288 289 302 145 115 68 334 279 335 328 82 58 39 62 66 15 38 57 71 235 259 276 280 309 359 42 347 343 6 117 343 268 267 291 276 256 258 217 204 228 228 186 184 179 181 197 197 192 186 191 199 199 194 197 199 190 185 184 183 182 180 180 185 189 183 180 183 187 181 176 185 178 187
51 13 39 48 71 118 125 114 252 205 240 313 270 285 327 51 287 59 13 284 286 343 330 7 43 23 13 42 75 77 98 68 278 263 239 243 257 257 260 358 355 350 340 332 318 244 244 272 299 284 265 222 222 237 178 172 172 189 195 198 189 187 199 205 204 199 195 185 182 183 183 185 185 186 187 189 186 186 186 177 167 176 179 184 178 179
8 350 46 201 171 160 131 249 321 307 281 249 303 328 325 262 64 20 230 237 276 309 310 345 14 9 19 32 47 48 313 197 230 253 274 279 346 338 322 297 250 264 299 326 315 316 316 282 225 244 247 247 241 221 187 152 162 185 198 195 192 211 204 176 160 172 175 169 171 180 186 194 193 193 194 189 187 186 179 173 177 174 176 178 177 173
347 92 332 76 112 188 186 166 226 241 238 202 289 313 333 9 339 245 235 238 279 330 322 28 355 336 2 60 47 314 278 279 272 287 296 302 273 254 264 283 320 335 323 314 307 318 311 320 319 291 286 267 250 221 183 170 170 188 189 190 212 214 149 165 169 163 155 155 148 146 164 224 236 211 196 193 181 179 183 183 175 176 178 173 172 179
213 107 236 217 237 68 56 75 5 343 298 212 349 9 22 99 224 214 247 264 227 230 359 322 328 306 335 329 316 320 324 340 349 327 319 314 322 313 308 319 321 314 308 312 321 310 321 316 304 294 269 277 244 218 198 177 184 191 190 195 219 185 166 159 166 163 158 158 159 166 181 201 205 197 197 193 188 182 183 176 176 178 175 174 177 181
221 72 294 284 185 134 126 125 187 211 217 288 80 201 247 189 190 182 184 289 273 246 261 269 276 274 273 283 312 326 322 319 308 305 322 318 315 312 318 312 311 308 296 276 267 281 315 302 292 293 292 279 250 228 222 188 191 193 192 217 219 167 170 165 168 170 169 173 180 188 196 199 194 193 192 191 185 186 180 179 181 177 179 176 179 182
246 201 179 263 257 118 223 220 265 280 200 274 150 227 223 223 209 171 169 212 237 261 218 236 260 254 224 220 264 283 306 304 290 281 271 271 274 277 284 286 287 289 287 284 283 292 301 282 287 298 302 299 279 237 216 220 206 198 205 231 187 172 176 174 170 176 183 188 190 192 192 184 188 190 197 194 186 185 186 182 177 178 182 176 183 185
265 322 189 120 271 284 247 214 264 12 10 343 309 237 251 260 235 181 199 234 243 242 216 227 247 245 256 216 236 279 261 261 271 277 274 268 268 276 275 287 292 288 288 288 291 282 274 294 292 287 291 296 289 264 234 222 214 208 221 227 197 185 180 170 174 184 191 195 196 191 185 192 192 191 199 193 191 192 187 182 182 184 178 183 189 189
293 32 38 83 275 60 265 327 5 347 311 336 31 329 312 281 256 217 214 228 249 250 252 242 237 247 240 268 262 262 278 279 269 263 261 272 283 281 286 292 295 295 294 295 285 293 303 296 298 300 299 298 297 285 260 237 226 229 234 226 210 191 180 178 183 191 194 196 200 195 190 194 200 199 201 197 195 194 190 188 186 183 182 186 188 191
318 357 19 200 221 77 252 272 290 281 271 266 300 340 340 314 296 286 256 263 251 263 250 264 250 256 255 267 259 253 266 277 275 277 284 285 280 292 293 290 287 299 294 279 284 290 286 279 270 283 296 296 293 299 287 265 254 245 242 242 220 191 177 181 187 193 198 199 194 191 194 199 201 198 196 194 190 190 191 194 188 188 190 188 191 188
237 3 281 323 355 277 299 321 343 346 359 349 341 350 344 335 290 299 302 312 318 317 305 297 245 237 228 246 256 260 280 284 278 269 279 292 302 297 287 279 277 274 285 307 308 325 307 303 308 301 304 294 295 301 300 282 265 265 261 255 255 222 200 194 196 193 195 194 188 195 197 199 197 196 195 193 195 197 192 187 191 199 201 202 190 188
13 314 251 33 5 356 323 306 12 12 316 318 319 318 319 317 315 323 332 339 332 327 322 324 314 299 269 254 254 235 237 270 292 310 287 278 277 285 299 305 307 310 312 301 297 296 305 302 293 298 301 295 297 301 299 294 283 273 269 260 240 211 235 230 209 197 194 189 188 194 193 200 202 199 195 192 193 199 211 218 204 195 192 200 204 202
177 234 51 23 270 286 262 257 232 238 238 245 260 288 301 290 319 323 317 310 309 307 306 312 305 312 312 315 306 273 320 299 304 328 354 318 299 282 264 268 308 324 317 310 329 326 332 317 317 324 316 304 303 303 300 300 298 288 277 262 238 212 232 265 251 234 208 188 193 190 189 192 194 195 195 195 195 197 199 200 221 232 226 217 196 193